TimeMDT,TemperatureF,Dew PointF,Humidity,Sea Level PressureIn,VisibilityMPH,Wind Direction,Wind SpeedMPH,Gust SpeedMPH,PrecipitationIn,Events,Conditions,WindDirDegrees,DateUTC
12:53 AM,43.0,21.0,42,30.32,10.0,Calm,Calm,-,N/A,,Clear,0,2012-09-13 06:53:00
1:53 AM,48.0,19.0,32,30.32,10.0,West,3.5,-,N/A,,Clear,280,2012-09-13 07:53:00
2:53 AM,42.1,19.0,40,30.33,10.0,NNE,4.6,-,N/A,,Clear,30,2012-09-13 08:53:00
3:53 AM,43.0,21.9,43,30.32,10.0,WNW,5.8,-,N/A,,Clear,300,2012-09-13 09:53:00
4:53 AM,44.1,18.0,35,30.32,7.0,West,9.2,-,N/A,,Clear,270,2012-09-13 10:53:00
5:53 AM,43.0,18.0,37,30.36,8.0,West,3.5,-,N/A,,Clear,280,2012-09-13 11:53:00
6:53 AM,41.0,21.0,45,30.40,9.0,Calm,Calm,-,N/A,,Clear,0,2012-09-13 12:53:00
7:53 AM,39.9,21.0,47,30.43,8.0,Calm,Calm,-,N/A,,Clear,0,2012-09-13 13:53:00
8:53 AM,44.1,21.9,42,30.43,8.0,Calm,Calm,-,N/A,,Clear,0,2012-09-13 14:53:00
9:53 AM,55.0,23.0,29,30.40,9.0,ESE,4.6,-,N/A,,Clear,110,2012-09-13 15:53:00
10:53 AM,61.0,19.9,21,30.37,8.0,Calm,Calm,-,N/A,,Clear,0,2012-09-13 16:53:00
11:53 AM,64.0,21.9,20,30.35,6.0,North,4.6,-,N/A,,Haze,360,2012-09-13 17:53:00
12:53 PM,68.0,21.0,17,30.35,7.0,NNE,5.8,-,N/A,,Clear,20,2012-09-13 18:53:00
1:53 PM,71.1,17.1,13,30.31,8.0,NE,4.6,-,N/A,,Clear,50,2012-09-13 19:53:00
2:53 PM,73.0,15.1,11,30.30,8.0,NE,4.6,-,N/A,,Clear,50,2012-09-13 20:53:00
3:53 PM,73.9,16.0,11,30.28,10.0,Variable,3.5,-,N/A,,Clear,0,2012-09-13 21:53:00
4:53 PM,75.0,16.0,11,30.26,10.0,Calm,Calm,-,N/A,,Clear,0,2012-09-13 22:53:00
5:53 PM,75.0,16.0,11,30.26,10.0,Calm,Calm,-,N/A,,Clear,0,2012-09-13 23:53:00
6:53 PM,71.1,21.0,15,30.29,10.0,NNE,3.5,-,N/A,,Clear,20,2012-09-14 00:53:00
7:53 PM,64.0,21.0,19,30.33,10.0,West,4.6,-,N/A,,Clear,260,2012-09-14 01:53:00
8:53 PM,62.1,18.0,18,30.35,10.0,WSW,13.8,-,N/A,,Clear,250,2012-09-14 02:53:00
9:53 PM,61.0,17.1,18,30.33,10.0,WSW,13.8,-,N/A,,Clear,240,2012-09-14 03:53:00
10:53 PM,59.0,17.1,20,30.33,10.0,SSW,5.8,-,N/A,,Clear,210,2012-09-14 04:53:00
11:53 PM,57.9,18.0,21,30.32,10.0,WSW,8.1,-,N/A,,Clear,240,2012-09-14 05:53:00